CW5612 Weather Reports


time (UTC)temp
C
wind
direction
speed
KPH
gust
KPH
rain 1hr
cm
rain 24hr
cm
rain mn
cm
humidity
%
barometer
mb
20260510204706 28 323 4.8 8.0 0.00 0.00 0.00 31 1012.7
20260510204205 28 323 1.6 4.8 0.00 0.00 0.00 33 1012.7
20260510203205 28 323 0.0 0.0 0.00 0.00 0.00 32 1012.6
20260510202205 28 300 0.0 0.0 0.00 0.00 0.00 33 1012.7
20260510201705 28 300 0.0 0.0 0.00 0.00 0.00 32 1012.8
20260510201205 28 300 0.0 0.0 0.00 0.00 0.00 31 1012.7
20260510200705 28 300 11.3 12.9 0.00 0.00 0.00 31 1012.8
20260510200205 28 292 0.0 1.6 0.00 0.00 0.00 33 1012.8
20260510195206 28 286 0.0 0.0 0.00 0.00 0.00 32 1013.0
20260510194205 28 286 0.0 0.0 0.00 0.00 0.00 34 1013.0
20260510193705 28 286 0.0 0.0 0.00 0.00 0.00 34 1013.1
20260510193205 28 286 1.6 8.0 0.00 0.00 0.00 33 1013.2
20260510192206 28 325 0.0 0.0 0.00 0.00 0.00 35 1013.3
20260510191705 28 325 0.0 0.0 0.00 0.00 0.00 34 1013.4
20260510190704 28 325 0.0 0.0 0.00 0.00 0.00 36 1013.2
20260510190205 28 325 0.0 0.0 0.00 0.00 0.00 34 1013.3
20260510185705 28 307 0.0 0.0 0.00 0.00 0.00 35 1013.4
20260510185205 28 307 1.6 8.0 0.00 0.00 0.00 36 1013.6
20260510184704 28 300 1.6 8.0 0.00 0.00 0.00 33 1013.6
20260510184205 28 293 0.0 8.0 0.00 0.00 0.00 33 1013.6
20260510183706 28 293 0.0 4.8 0.00 0.00 0.00 35 1013.6
20260510183205 28 293 3.2 11.3 0.00 0.00 0.00 33 1013.6
20260510182706 28 286 4.8 8.0 0.00 0.00 0.00 33 1013.7
20260510181706 28 294 0.0 0.0 0.00 0.00 0.00 31 1013.8
20260510181204 28 294 4.8 11.3 0.00 0.00 0.00 32 1013.7
20260510180705 28 289 9.7 11.3 0.00 0.00 0.00 31 1013.8
20260510174704 30 315 0.0 0.0 0.00 0.00 0.00 32 1014.0
20260510174205 30 315 0.0 0.0 0.00 0.00 0.00 32 1013.9
20260510173705 30 315 0.0 0.0 0.00 0.00 0.00 32 1014.0
20260510173204 30 315 0.0 0.0 0.00 0.00 0.00 32 1014.0
20260510172705 30 315 0.0 0.0 0.00 0.00 0.00 32 1013.8
20260510172205 30 315 0.0 0.0 0.00 0.00 0.00 31 1013.9
20260510171205 30 315 0.0 0.0 0.00 0.00 0.00 34 1014.0
20260510170204 30 315 0.0 0.0 0.00 0.00 0.00 34 1014.2
20260510165704 30 315 0.0 0.0 0.00 0.00 0.00 34 1014.4
20260510164705 29 315 0.0 0.0 0.00 0.00 0.00 33 1014.5
20260510164204 29 315 0.0 0.0 0.00 0.00 0.00 34 1014.5
20260510163705 28 315 0.0 0.0 0.00 0.00 0.00 39 1014.6
20260510163206 28 315 0.0 0.0 0.00 0.00 0.00 40 1014.6
20260510162705 28 315 0.0 0.0 0.00 0.00 0.00 36 1014.6
20260510162204 28 316 0.0 0.0 0.00 0.00 0.00 37 1014.6
20260510161204 27 314 0.0 0.0 0.00 0.00 0.00 40 1014.7
20260510160204 26 314 0.0 0.0 0.00 0.00 0.00 47 1014.9
20260510154705 26 314 0.0 0.0 0.00 0.00 0.00 47 1014.9
20260510154206 26 314 0.0 0.0 0.00 0.00 0.00 48 1015.0
20260510153205 26 314 0.0 0.0 0.00 0.00 0.00 51 1015.0
20260510152706 25 314 0.0 0.0 0.00 0.00 0.00 51 1015.2
20260510152204 25 314 0.0 0.0 0.00 0.00 0.00 52 1015.2
20260510151205 24 314 0.0 0.0 0.00 0.00 0.00 53 1015.3
20260510150705 24 314 0.0 0.0 0.00 0.00 0.00 57 1015.2
20260510150204 24 314 0.0 0.0 0.00 0.00 0.00 55 1015.4
20260510145705 23 314 0.0 0.0 0.00 0.00 0.00 58 1015.3
20260510145206 23 314 0.0 0.0 0.00 0.00 0.00 58 1015.2
20260510144705 23 314 0.0 0.0 0.00 0.00 0.00 60 1015.2
20260510144204 22 314 0.0 0.0 0.00 0.00 0.00 63 1015.2
20260510143705 22 314 0.0 0.0 0.00 0.00 0.00 64 1015.1
20260510143205 21 314 0.0 0.0 0.00 0.00 0.00 62 1015.1
20260510142704 21 314 0.0 0.0 0.00 0.00 0.00 68 1015.0
20260510142204 20 314 0.0 0.0 0.00 0.00 0.00 76 1015.0
20260510141706 20 314 0.0 0.0 0.00 0.00 0.00 69 1015.0
20260510141204 19 314 0.0 0.0 0.00 0.00 0.00 73 1015.0
20260510140706 18 314 0.0 0.0 0.00 0.00 0.00 77 1014.9
20260510140205 18 314 0.0 0.0 0.00 0.00 0.00 75 1015.0
20260510135704 18 314 0.0 0.0 0.00 0.00 0.00 80 1014.9
20260510135205 17 314 0.0 1.6 0.00 0.00 0.00 80 1014.9
20260510134704 17 314 0.0 1.6 0.00 0.00 0.00 81 1014.8
20260510134205 17 314 0.0 1.6 0.00 0.00 0.00 82 1014.9
20260510133705 17 314 0.0 1.6 0.00 0.00 0.00 83 1014.9
20260510133206 16 314 0.0 0.0 0.00 0.00 0.00 87 1014.7
20260510132704 16 314 0.0 0.0 0.00 0.00 0.00 89 1014.9
20260510132204 16 314 0.0 0.0 0.00 0.00 0.00 90 1014.9
20260510131705 16 314 0.0 0.0 0.00 0.00 0.00 92 1015.0
20260510131205 15 314 0.0 0.0 0.00 0.00 0.00 92 1014.9
20260510130704 15 314 0.0 0.0 0.00 0.00 0.00 92 1014.9
20260510130206 15 314 0.0 0.0 0.00 0.00 0.00 93 1014.8
20260510125704 15 314 0.0 0.0 0.00 0.00 0.00 93 1014.8
20260510125204 15 315 0.0 0.0 0.00 0.00 0.00 94 1014.7
20260510124704 15 315 0.0 0.0 0.00 0.00 0.00 94 1014.7
20260510124204 15 315 0.0 0.0 0.00 0.00 0.00 93 1014.7
20260510123706 15 315 0.0 0.0 0.00 0.00 0.00 93 1014.7
20260510123204 15 315 0.0 0.0 0.00 0.00 0.00 93 1014.8
20260510122204 14 315 0.0 0.0 0.00 0.00 0.00 93 1014.7
20260510121704 14 315 0.0 0.0 0.00 0.00 0.00 93 1014.5
20260510121204 14 315 0.0 0.0 0.00 0.00 0.00 92 1014.4
20260510120704 14 315 0.0 0.0 0.00 0.00 0.00 92 1014.3
20260510115705 14 315 0.0 0.0 0.00 0.00 0.00 91 1014.2
20260510115206 14 315 0.0 0.0 0.00 0.00 0.00 91 1014.2
20260510114705 13 315 0.0 0.0 0.00 0.00 0.00 91 1014.1
20260510114204 14 315 0.0 0.0 0.00 0.00 0.00 91 1014.1
20260510113204 13 315 0.0 0.0 0.00 0.00 0.00 91 1013.9
20260510112204 13 315 0.0 0.0 0.00 0.00 0.00 90 1013.7
20260510111705 13 315 0.0 0.0 0.00 0.00 0.00 90 1013.6
20260510111204 13 315 0.0 0.0 0.00 0.00 0.00 90 1013.6
20260510110704 14 315 0.0 0.0 0.00 0.00 0.00 90 1013.7
20260510110204 14 315 0.0 0.0 0.00 0.00 0.00 90 1013.6
20260510105704 13 315 0.0 0.0 0.00 0.00 0.00 90 1013.5
20260510105204 13 315 0.0 0.0 0.00 0.00 0.00 90 1013.5
20260510104704 14 315 0.0 0.0 0.00 0.00 0.00 90 1013.4
20260510104204 14 315 0.0 0.0 0.00 0.00 0.00 90 1013.4
20260510103704 14 315 0.0 0.0 0.00 0.00 0.00 90 1013.3
20260510103204 14 315 0.0 0.0 0.00 0.00 0.00 90 1013.3
20260510102704 14 315 0.0 0.0 0.00 0.00 0.00 90 1013.1
20260510102204 14 315 0.0 0.0 0.00 0.00 0.00 90 1013.1
20260510101205 14 315 0.0 0.0 0.00 0.00 0.00 89 1013.0
20260510100705 14 315 0.0 0.0 0.00 0.00 0.00 89 1013.0
20260510100204 14 315 0.0 0.0 0.00 0.00 0.00 89 1012.7
20260510095704 14 315 0.0 0.0 0.00 0.00 0.00 89 1012.6
20260510094705 15 315 0.0 0.0 0.00 0.00 0.00 89 1012.5
20260510094204 15 315 0.0 0.0 0.00 0.00 0.00 89 1012.4
20260510093703 15 315 0.0 0.0 0.00 0.00 0.00 89 1012.4
20260510093204 15 315 0.0 0.0 0.00 0.00 0.00 89 1012.3
20260510092705 15 315 0.0 0.0 0.00 0.00 0.00 89 1012.3
20260510092204 15 315 0.0 0.0 0.00 0.00 0.00 89 1012.4
20260510091704 15 315 0.0 0.0 0.00 0.00 0.00 88 1012.4
20260510091204 15 315 0.0 0.0 0.00 0.00 0.00 88 1012.4
20260510090204 15 315 0.0 0.0 0.00 0.00 0.00 89 1012.3
20260510084704 15 315 0.0 0.0 0.00 0.00 0.00 88 1012.0
20260510084204 15 315 0.0 0.0 0.00 0.00 0.00 88 1012.0
20260510082704 15 315 0.0 0.0 0.00 0.00 0.00 88 1012.0
20260510082204 15 315 0.0 0.0 0.00 0.00 0.00 88 1012.1
20260510081704 16 315 0.0 0.0 0.00 0.00 0.00 87 1012.2
20260510081204 16 315 0.0 0.0 0.00 0.00 0.00 87 1012.0
20260510080704 16 315 0.0 0.0 0.00 0.00 0.00 87 1011.9
20260510080203 16 315 0.0 0.0 0.00 0.00 0.00 86 1012.0
20260510075704 16 315 0.0 0.0 0.00 0.00 0.00 86 1011.9
20260510075203 16 315 0.0 0.0 0.00 0.00 0.00 86 1011.9
20260510074704 16 315 0.0 0.0 0.00 0.00 0.00 86 1011.8
20260510074204 16 315 0.0 0.0 0.00 0.00 0.00 85 1011.7
20260510073204 16 315 0.0 0.0 0.00 0.00 0.00 85 1011.6
20260510072704 16 315 0.0 0.0 0.00 0.00 0.00 85 1011.6
20260510072203 16 315 0.0 0.0 0.00 0.00 0.00 84 1011.6
20260510071704 16 315 0.0 0.0 0.00 0.00 0.00 84 1011.7
20260510071203 16 315 0.0 0.0 0.00 0.00 0.00 84 1011.8
20260510070705 16 315 0.0 0.0 0.00 0.00 0.00 84 1011.9
20260510070204 17 315 0.0 0.0 0.00 0.00 0.00 84 1011.6
20260510065705 17 315 0.0 0.0 0.00 0.00 0.00 84 1011.6
20260510064703 17 315 0.0 0.0 0.00 0.00 0.00 83 1011.8
20260510064204 17 315 0.0 0.0 0.00 0.00 0.00 84 1011.7
20260510063204 17 315 0.0 0.0 0.00 0.00 0.00 83 1011.8
20260510062704 17 315 0.0 0.0 0.00 0.00 0.00 83 1011.8
20260510062204 17 315 0.0 0.0 0.00 0.00 0.00 82 1011.9
20260510061705 17 314 0.0 0.0 0.00 0.00 0.00 82 1011.9
20260510061204 17 314 0.0 0.0 0.00 0.00 0.00 82 1011.8
20260510060204 17 314 0.0 0.0 0.00 0.00 0.00 81 1011.9
20260510055703 18 314 0.0 0.0 0.00 0.00 0.00 81 1011.8
20260510055204 18 314 0.0 0.0 0.00 0.00 0.00 80 1011.8
20260510054705 18 314 0.0 0.0 0.00 0.00 0.00 80 1011.8
20260510054204 18 314 0.0 0.0 0.00 0.00 0.00 80 1011.8
20260510053703 18 314 0.0 0.0 0.00 0.00 0.00 80 1011.9
20260510053204 18 314 0.0 0.0 0.00 0.00 0.00 80 1011.9
20260510052704 18 314 0.0 0.0 0.00 0.00 0.00 80 1011.8
20260510052203 18 314 0.0 0.0 0.00 0.00 0.00 80 1011.8
20260510051705 18 314 0.0 0.0 0.00 0.00 0.00 80 1011.9
20260510050205 18 314 0.0 0.0 0.00 0.00 0.00 79 1011.9
20260510045704 18 314 0.0 0.0 0.00 0.00 0.00 79 1011.9
20260510045204 18 314 0.0 0.0 0.00 0.00 0.00 79 1011.8
20260510043704 18 314 0.0 0.0 0.00 0.00 0.00 78 1011.9
20260510043205 18 314 0.0 0.0 0.00 0.00 0.00 78 1011.8
20260510041203 18 314 0.0 0.0 0.00 0.00 0.00 77 1011.7
20260510040704 18 314 0.0 0.0 0.00 0.00 0.00 76 1011.8
20260510040205 18 314 0.0 0.0 0.00 0.00 0.00 76 1011.7
20260510035706 18 314 0.0 0.0 0.00 0.00 0.00 76 1011.6
20260510035206 18 314 0.0 0.0 0.00 0.00 0.00 76 1011.6
20260510034706 18 314 0.0 0.0 0.00 0.00 0.00 75 1011.7
20260510034206 18 314 0.0 0.0 0.00 0.00 0.00 75 1011.5
20260510033705 18 314 0.0 0.0 0.00 0.00 0.00 75 1011.5
20260510033206 18 314 0.0 0.0 0.00 0.00 0.00 74 1011.5
20260510032706 18 314 0.0 0.0 0.00 0.00 0.00 74 1011.6
20260510031706 18 314 0.0 0.0 0.00 0.00 0.00 73 1011.5
20260510031205 18 314 0.0 0.0 0.00 0.00 0.00 72 1011.4
20260510030706 18 314 0.0 0.0 0.00 0.00 0.00 72 1011.4
20260510030207 18 314 0.0 0.0 0.00 0.00 0.00 71 1011.4
20260510025705 18 314 0.0 0.0 0.00 0.00 0.00 71 1011.4
20260510025207 18 314 0.0 0.0 0.00 0.00 0.00 71 1011.3
20260510024705 18 314 0.0 0.0 0.00 0.00 0.00 71 1011.3
20260510024206 18 314 0.0 0.0 0.00 0.00 0.00 70 1011.2
20260510023707 19 314 0.0 0.0 0.00 0.00 0.00 70 1011.3
20260510023206 19 314 0.0 0.0 0.00 0.00 0.00 70 1011.3
20260510022705 19 314 0.0 0.0 0.00 0.00 0.00 69 1011.2
20260510022207 19 314 0.0 0.0 0.00 0.00 0.00 69 1011.2
20260510021706 19 314 0.0 0.0 0.00 0.00 0.00 69 1011.2
20260510021205 19 314 0.0 0.0 0.00 0.00 0.00 69 1011.0
20260510020705 19 314 0.0 0.0 0.00 0.00 0.00 68 1010.9
20260510020206 19 314 0.0 0.0 0.00 0.00 0.00 68 1010.8
20260510015706 20 314 0.0 0.0 0.00 0.00 0.00 68 1010.8
20260510015206 20 314 0.0 0.0 0.00 0.00 0.00 68 1010.6
20260510014705 20 314 0.0 0.0 0.00 0.00 0.00 68 1010.4
20260510013705 20 314 0.0 0.0 0.00 0.00 0.00 67 1010.3
20260510013205 20 314 0.0 0.0 0.00 0.00 0.00 67 1010.3
20260510012707 20 314 0.0 0.0 0.00 0.00 0.00 66 1010.2
20260510011707 20 314 0.0 0.0 0.00 0.00 0.00 66 1010.3
20260510010706 20 314 0.0 0.0 0.00 0.00 0.00 65 1010.0
20260510005706 21 314 0.0 0.0 0.00 0.00 0.00 64 1009.9
20260510005206 21 314 0.0 0.0 0.00 0.00 0.00 63 1010.0
20260510004706 21 314 0.0 0.0 0.00 0.00 0.00 63 1009.9
20260510004207 21 314 0.0 0.0 0.00 0.00 0.00 62 1009.9
20260510003705 21 314 0.0 0.0 0.00 0.00 0.00 62 1009.8
20260510003207 21 314 0.0 0.0 0.00 0.00 0.00 61 1009.8
20260510002205 21 314 0.0 0.0 0.00 0.00 0.00 60 1009.7
20260510001705 21 314 0.0 0.0 0.00 0.00 0.00 60 1009.6
20260510001205 22 314 0.0 0.0 0.00 0.00 0.00 59 1009.5
20260510000705 22 314 0.0 0.0 0.00 0.00 0.00 58 1009.4
20260509235205 22 314 0.0 0.0 0.00 0.00 0.00 57 1009.4
20260509234706 22 314 0.0 0.0 0.00 0.00 0.00 57 1009.3
20260509234205 22 314 0.0 0.0 0.00 0.00 0.00 57 1009.2
20260509233705 22 314 0.0 0.0 0.00 0.00 0.00 56 1009.1
20260509233206 23 314 0.0 0.0 0.00 0.00 0.00 57 1009.2
20260509232705 23 314 0.0 0.0 0.00 0.00 0.00 56 1009.2
20260509231705 23 314 0.0 0.0 0.00 0.00 0.00 55 1009.3
20260509230205 23 314 0.0 0.0 0.00 0.00 0.00 53 1009.3
20260509225705 23 314 0.0 1.6 0.00 0.00 0.00 54 1009.3
20260509225205 23 314 0.0 0.0 0.00 0.00 0.00 53 1009.3
20260509224705 23 314 3.2 11.3 0.00 0.00 0.00 51 1009.2
20260509224205 23 310 8.0 8.0 0.00 0.00 0.00 51 1009.2
20260509223706 23 306 3.2 8.0 0.00 0.00 0.00 51 1009.2
20260509223207 23 306 1.6 8.0 0.00 0.00 0.00 51 1009.1
20260509222205 23 306 0.0 0.0 0.00 0.00 0.00 50 1009.2
20260509221705 23 306 0.0 0.0 0.00 0.00 0.00 51 1009.1
20260509221205 23 306 0.0 4.8 0.00 0.00 0.00 50 1009.1
20260509220207 24 306 0.0 0.0 0.00 0.00 0.00 50 1009.1
20260509215705 24 306 0.0 0.0 0.00 0.00 0.00 52 1009.0
20260509215205 24 306 0.0 0.0 0.00 0.00 0.00 51 1009.0
20260509214706 24 306 0.0 4.8 0.00 0.00 0.00 50 1009.0
20260509214205 24 306 1.6 8.0 0.00 0.00 0.00 49 1008.9
20260509212705 23 307 1.6 11.3 0.00 0.00 0.00 51 1008.9
20260509212206 23 288 0.0 0.0 0.00 0.00 0.00 51 1008.9
20260509211704 23 288 0.0 8.0 0.00 0.00 0.00 53 1008.8
20260509211205 23 288 4.8 8.0 0.00 0.00 0.00 53 1008.7
20260509210706 23 288 4.8 8.0 0.00 0.00 0.00 52 1008.7
20260509205707 23 172 4.8 8.0 0.00 0.00 0.00 52 1008.8